Location: *
(42.3442°N, 9.2072°E)
Time: 08:13:22
(UTC+00:00)

Daily predictions for brighter satellites

Satellite Brightness Start Highest point End
(mag) Time Altitude Azimuth Time Altitude Azimuth Time Altitude Azimuth
Cosmos 1603 4.2 18:16:38 10° SW 18:22:13 66° WNW 18:27:49 10° NNE
COSMOS 2455 4.0 18:19:54 10° NNW 18:25:03 28° NE 18:30:11 10° ESE
HJ-1C 3.3 18:22:15 10° SSE 18:25:35 73° ENE 18:28:58 10° N
Abrixas rocket 3.5 18:24:35 10° NW 18:27:12 27° N 18:29:49 10° ENE
Cosmos 1140 Rocket 4.1 18:24:56 10° SSE 18:29:31 33° E 18:34:06 10° NE
Ariane Rocket 3.1 18:27:08 10° SSE 18:32:06 58° ENE 18:37:04 10° N
Cosmos 1943 Rocket 3.6 18:29:30 10° NW 18:34:39 40° WSW 18:39:49 10° S
Meteor 1-16 Rocket 4.1 18:31:33 10° S 18:36:56 74° E 18:42:30 10° NNE
Cosmos 614 Rocket 4.0 18:32:08 10° S 18:37:18 66° ESE 18:42:28 10° NNE
YAOGAN 1 4.3 18:33:18 10° SSW 18:37:18 37° W 18:41:20 10° NNW
CZ-2C R/B 3.1 18:33:02 10° SSE 18:37:42 50° ENE 18:42:17 10° N
APEX 4.4 18:33:31 10° NNW 18:39:48 55° ENE 18:44:50 10° SE
MONITOR-E 4.5 18:38:45 10° SE 18:41:10 34° ENE 18:43:36 10° N
STARLINK-29 2.9 18:38:59 10° SW 18:42:10 88° NW 18:45:24 10° NE
Cosmos 1190 Rocket 4.2 18:38:13 10° S 18:43:20 52° ESE 18:48:28 10° NNE
SJ-6B 3.4 18:40:23 10° SE 18:44:15 41° ENE 18:48:09 10° N
Aureole 1 Rocket 4.1 18:36:49 10° S 18:44:23 70° ESE 18:50:19 10° NNE
Cosmos 1300 4.2 18:43:13 10° SE 18:45:49 18° E 18:48:24 10° NE
IRIDIUM 104 4.4 18:42:00 10° N 18:47:15 89° W 18:52:28 10° S
BREEZE-M DEB (TANK) 4.4 18:41:27 10° WNW 18:48:12 46° N 18:50:46 13° E
ARGOS Delta rocket 4.4 18:45:15 10° S 18:50:34 77° W 18:56:05 10° NNW
Cosmos 2369 Rocket 3.6 18:46:43 10° NW 18:51:56 39° WSW 18:57:06 10° S
SL-24 R/B 4.4 18:49:45 10° NNE 18:53:18 32° E 18:56:36 10° SSE
CZ-2C R/B 4.1 18:51:50 10° NNE 18:56:15 40° E 19:00:34 10° SSE
Cosmos 2058 Rocket 3.3 18:53:42 10° SSE 18:58:03 51° E 19:02:25 10° NNE
Hubble Space Telescope 3.0 18:58:08 10° S 18:59:16 11° S 19:00:25 10° SSE
Cosmos 1726 Rocket 3.5 18:56:18 10° S 19:00:42 87° E 19:05:10 10° N
SL-08 RB Rocket 3.8 18:56:47 10° SSE 19:01:13 56° ENE 19:05:45 10° N
STARLINK-1228 3.5 19:01:18 10° NW 19:04:06 39° NNE 19:05:31 23° E
Cosmos 1461 3.2 18:59:58 10° NNW 19:04:32 67° NE 19:08:01 17° SE
Cosmos 1726 4.0 19:02:03 10° SW 19:05:30 35° WNW 19:08:58 10° N
SL-4 R/B 3.6 19:03:48 10° WNW 19:06:40 25° NNW 19:09:34 10° NE
Cosmos 921 Rocket 3.3 19:03:00 10° N 19:07:03 46° ENE 19:09:43 19° SE
Cosmos 1703 3.4 19:03:29 10° N 19:07:27 76° W 19:11:24 10° S
DMSP B5D2-2 4.4 19:02:31 10° NNE 19:07:27 41° E 19:12:23 10° SSE
Meteor 2-17 Rocket 4.4 19:02:03 10° N 19:08:14 76° E 19:14:23 10° SSE
Cosmos 2341 Rocket 4.4 19:02:13 10° N 19:08:17 44° ENE 19:13:22 15° SE
Cosmos 407 Rocket 3.6 19:03:48 10° SSW 19:08:56 79° WNW 19:14:05 10° NNE
Cosmos 1908 3.5 19:05:20 10° SSW 19:09:10 70° W 19:13:04 10° N
Cosmos 1340 Rocket 2.7 19:05:36 10° S 19:09:37 74° E 19:13:39 10° NNE
Cosmos 2184 Rocket 4.4 19:03:50 10° NNW 19:10:03 68° W 19:16:11 10° S
FREGAT/IRIS 3.0 19:07:27 10° S 19:10:07 56° W 19:12:48 10° NNW
Cosmos 1825 Rocket 4.3 19:06:31 10° NNW 19:10:47 53° W 19:15:00 10° S
Cosmos 2228 3.6 19:07:24 10° SSW 19:11:38 59° W 19:15:57 10° N
Cosmos 676 Rocket 4.1 19:07:23 10° S 19:12:32 56° ESE 19:17:41 10° NNE
STARLINK-1201 4.1 19:10:08 10° NW 19:13:08 33° NNE 19:14:33 23° ENE
Cosmos 1656 Rocket 4.4 19:08:22 10° NNW 19:13:51 54° WSW 19:19:13 10° S
Cosmos 1328 4.2 19:10:10 10° NNW 19:14:09 66° W 19:18:06 10° S
ATLAS 5 CENTAUR R/B 4.3 19:12:03 10° S 19:16:29 16° SSE 19:18:54 15° SE
MOS 1 4.5 19:11:35 10° S 19:17:13 76° WSW 19:22:55 10° NNW
MetOp-A 4.2 19:13:31 14° SSE 19:18:06 61° ENE 19:23:24 10° N
Resurs 01 Rocket 2.3 19:17:44 24° ESE 19:19:35 36° ENE 19:23:38 10° N
Cosmos 2058 4.3 19:17:53 10° NNE 19:20:58 20° ENE 19:21:10 20° ENE
H-2A R/B 4.4 19:19:44 10° WSW 19:21:05 10° SW 19:22:11 10° SW
STARLINK-52 4.1 19:19:32 10° WSW 19:22:37 43° NNW 19:25:43 10° NE
Nadezhda 1 Rocket 4.3 19:17:27 10° SSW 19:23:49 74° W 19:30:11 10° N
MOS 1 Rocket 3.7 19:18:45 10° NNE 19:24:05 55° E 19:29:24 10° S
BREEZE M DEB (TANK) 2.5 19:22:15 10° SW 19:25:03 63° SE 19:32:11 10° ENE
CZ-2C R/B 2.7 19:20:19 10° NNE 19:25:23 51° E 19:30:27 10° S
Cosmos 1812 Rocket 4.4 19:25:20 27° E 19:25:38 28° E 19:29:19 10° NNE
SPOT 3 Rocket 3.5 19:22:44 14° SSE 19:27:12 78° ENE 19:32:24 10° N
ARGOS 3.6 19:23:22 10° S 19:28:41 60° W 19:34:01 10° NNW
Cosmos 962 Rocket 4.4 19:23:05 10° N 19:29:13 68° E 19:34:09 16° SSE
FALCON 9 DEB 4.5 19:27:39 10° WSW 19:30:59 40° NNW 19:34:19 10° NE
SL-8 Rocket 4.3 19:25:44 10° N 19:31:50 48° ENE 19:35:13 25° SE
GEOS 3 Rocket 4.4 19:27:21 12° SSE 19:31:56 46° WSW 19:36:57 10° NW
Cosmos 2154 Rocket 4.3 19:26:46 10° NNW 19:33:05 71° W 19:39:21 10° S
Iridium 2 4.3 19:33:27 36° E 19:33:27 36° E 19:36:57 10° NNE
Cosmos 2181 Rocket 4.1 19:28:05 10° SSE 19:34:06 52° E 19:40:05 10° NNE
Cosmos 1954 Rocket 3.9 19:28:54 10° SSW 19:34:08 84° ESE 19:39:23 10° NNE
USA 186 3.8 19:31:30 10° SSW 19:34:24 28° W 19:37:12 10° NW
NOSS 3-4 (A) 4.2 19:29:13 10° NW 19:36:17 66° WSW 19:42:33 17° SSE
NOSS 3-4 (C) 4.2 19:29:20 10° NW 19:36:24 67° WSW 19:42:37 17° SSE
STARLINK-67 3.2 19:37:09 10° WNW 19:39:24 43° WSW 19:39:24 43° WSW
Cosmos 1741 Rocket 4.5 19:41:05 34° SE 19:42:10 37° ESE 19:47:03 10° NE
Cosmos 2366 rocket 4.2 19:40:01 10° N 19:45:58 48° ENE 19:48:11 34° SE
BREEZE-M DEB (TANK) 3.4 19:40:37 10° SW 19:45:55 49° SSE 19:45:55 49° SSE
Cosmos 1076 Rocket 4.0 19:42:11 10° N 19:46:14 39° ENE 19:46:20 39° E
Cosmos 1763 Rocket 4.2 19:46:02 10° N 19:50:44 34° ENE 19:51:29 33° E
GRACE-FO 2 4.5 19:51:14 66° E 19:51:20 67° E 19:55:01 10° N
STARLINK-1200 4.4 19:47:45 10° NW 19:51:41 39° NNE 19:52:31 35° ENE
STARLINK-1234 3.4 19:53:07 10° WNW 19:55:47 57° W 19:55:47 57° W
STARLINK-1209 3.5 19:53:35 10° WNW 19:56:15 54° W 19:56:15 54° W
STARLINK-1192 4.3 19:52:43 10° NW 19:56:41 42° NNE 19:57:18 39° NE
STARLINK-1233 3.3 19:53:58 10° NW 19:56:38 61° NW 19:56:38 61° NW
STARLINK-1212 3.4 19:54:26 10° NW 19:57:04 59° NW 19:57:04 59° NW
STARLINK-1105 3.4 19:54:52 10° NW 19:57:31 59° NW 19:57:31 59° NW
STARLINK-1206 3.4 19:55:21 10° NW 19:57:55 57° NW 19:57:55 57° NW
STARLINK-1247 3.5 19:55:48 10° NW 19:58:22 56° NW 19:58:22 56° NW
STARLINK-1227 3.5 19:56:12 10° NW 19:58:47 57° NW 19:58:47 57° NW
Iridium 4 Rocket 3.5 19:55:43 10° N 19:59:05 41° ENE 19:59:05 41° ENE
STARLINK-1218 3.5 19:56:42 10° NW 19:59:13 54° NW 19:59:13 54° NW
STARLINK-1226 3.5 19:57:08 10° NW 19:59:40 54° NW 19:59:40 54° NW
STARLINK-1254 3.5 19:57:34 10° NW 20:00:06 54° WNW 20:00:06 54° WNW
USA 234 3.3 19:54:28 10° ENE 20:00:49 50° SE 20:07:07 10° SSW
Cosmos 1980 Rocket 4.1 19:57:52 10° NNE 20:00:56 15° NE 20:02:02 14° ENE
STARLINK-1215 3.6 19:58:04 10° NW 20:00:32 52° WNW 20:00:32 52° WNW
STARLINK-1231 3.6 19:58:30 10° NW 20:00:58 51° WNW 20:00:58 51° WNW
STARLINK-1244 4.2 19:57:46 10° NW 20:01:46 45° NNE 20:02:10 43° NE
Cosmos 1174 4.5 19:57:48 10° NNW 20:02:02 54° ENE 20:02:39 50° E
H-2A R/B 4.1 19:58:17 10° SSW 20:02:25 24° W 20:06:30 10° NW
STARLINK-1232 3.7 19:59:25 10° NW 20:01:50 50° WNW 20:01:50 50° WNW
STARLINK-1217 3.7 19:59:52 10° NW 20:02:16 49° WNW 20:02:16 49° WNW
Abrixas rocket 3.2 20:00:04 10° WNW 20:02:07 40° WNW 20:02:07 40° WNW
Cosmos 1892 3.6 19:59:22 10° N 20:02:13 37° NE 20:02:13 37° NE
STARLINK-1208 3.7 20:00:17 10° NW 20:02:43 50° WNW 20:02:43 50° WNW
STARLINK-1229 3.8 20:00:45 10° NW 20:03:07 48° WNW 20:03:07 48° WNW
STARLINK-1271 3.8 20:01:13 10° NW 20:03:34 47° WNW 20:03:34 47° WNW
ATLAS 5 CENTAUR R/B 3.8 20:00:57 10° W 20:04:31 26° NW 20:08:28 10° NNE
STARLINK-1270 3.9 20:01:40 10° NW 20:04:00 46° WNW 20:04:00 46° WNW
STARLINK-1154 3.9 20:02:07 10° NW 20:04:26 46° WNW 20:04:26 46° WNW
STARLINK-1197 4.0 20:03:02 10° NW 20:05:18 44° WNW 20:05:18 44° WNW
STARLINK-1189 4.0 20:03:27 10° NW 20:05:43 43° WNW 20:05:43 43° WNW
STARLINK-1138 4.1 20:02:39 10° NW 20:06:41 48° NNE 20:06:52 48° NE
STARLINK-1198 4.0 20:03:56 10° NW 20:06:10 43° WNW 20:06:10 43° WNW
STARLINK-1188 4.1 20:04:22 10° NW 20:06:35 42° WNW 20:06:35 42° WNW
STARLINK-1235 4.2 20:05:04 10° WNW 20:07:18 39° W 20:07:18 39° W
ATLAS 2AS CENTAUR R/B 3.9 20:01:28 10° NW 20:08:08 38° WSW 20:13:00 16° S
STARLINK-1187 4.1 20:05:27 10° WNW 20:07:42 41° WNW 20:07:42 41° WNW
STARLINK-1199 4.2 20:06:18 10° WNW 20:08:31 41° WNW 20:08:31 41° WNW
STARLINK-1191 4.2 20:06:46 10° WNW 20:08:56 40° WNW 20:08:56 40° WNW
STARLINK-1210 4.2 20:07:13 10° WNW 20:09:23 39° WNW 20:09:23 39° WNW
STARLINK-1221 4.3 20:07:40 10° WNW 20:09:49 39° WNW 20:09:49 39° WNW
STARLINK-1219 4.3 20:08:08 10° WNW 20:10:15 38° WNW 20:10:15 38° WNW
COSMOS 2455 3.3 20:05:27 10° NW 20:11:20 57° WSW 20:13:57 32° S
STARLINK-1143 4.0 20:07:36 10° NW 20:11:39 52° NNE 20:11:39 52° NNE
STARLINK-1222 4.3 20:08:34 10° WNW 20:10:40 38° WNW 20:10:40 38° WNW
STARLINK-1211 4.3 20:09:02 10° WNW 20:11:07 37° WNW 20:11:07 37° WNW
STARLINK-1214 4.4 20:09:29 10° WNW 20:11:33 36° WNW 20:11:33 36° WNW
STARLINK-1245 4.4 20:09:58 10° WNW 20:11:57 35° WNW 20:11:57 35° WNW
STARLINK-1238 4.4 20:10:22 10° WNW 20:12:25 36° WNW 20:12:25 36° WNW
ERBS 3.7 20:12:02 10° NW 20:14:20 36° N 20:14:20 36° N
STARLINK-1241 4.0 20:12:37 10° NW 20:16:28 55° NNE 20:16:28 55° NNE
IGS 5A 4.3 20:20:27 39° NNE 20:20:27 39° NNE 20:23:26 10° N
STARLINK-1239 4.1 20:17:34 10° NW 20:21:14 56° N 20:21:14 56° N
Spot 2 Rocket 3.3 20:22:15 73° SE 20:22:42 80° ENE 20:27:49 10° NNW
ATLAS CENTAUR R/B 3.4 20:20:22 10° N 20:22:10 16° NNE 20:22:10 16° NNE
Cosmos 1850 Rocket 3.9 20:24:21 43° SSW 20:26:05 85° WNW 20:31:18 10° NNE
STARLINK-1240 4.2 20:22:32 10° NW 20:26:01 55° NNW 20:26:01 55° NNW
USA 32 4.4 20:21:51 10° N 20:26:23 50° ENE 20:26:23 50° ENE
Terra 3.4 20:29:53 24° NE 20:29:53 24° NE 20:32:38 10° N
Cosmos 841 Rocket 4.2 20:25:01 10° N 20:29:32 41° NE 20:29:32 41° NE
SPOT 5 4.1 20:31:40 27° NNE 20:31:40 27° NNE 20:34:05 10° N
Cosmos 2082 Rocket 4.3 20:34:09 14° NE 20:34:09 14° NE 20:34:59 10° NE
In-Cosmos 22 Rocket 4.5 20:25:17 10° NNW 20:31:06 68° W 20:32:45 46° SSW
STARLINK-1216 4.3 20:27:29 10° NW 20:30:47 52° NNW 20:30:47 52° NNW
Meteor 2-10 Rocket 3.9 20:33:52 52° NE 20:33:52 52° NE 20:38:13 10° NNE
MetOp-B 4.2 20:32:14 60° SSW 20:33:07 73° WSW 20:38:30 10° NNW
SL-08 R/B 4.3 20:29:49 10° N 20:36:00 80° E 20:36:44 69° SE
STARLINK-1237 4.5 20:32:26 10° NW 20:35:33 48° NW 20:35:33 48° NW
Cosmos 1833 Rocket 3.8 20:39:02 32° NE 20:39:02 32° NE 20:42:06 10° NNE
Cosmos 468 Rocket 4.0 20:37:25 10° NNW 20:42:30 69° WSW 20:42:30 69° WSW
ERS-1 Rocket 3.4 20:47:00 54° NNE 20:47:00 54° NNE 20:51:04 10° N
SL-4 R/B 4.2 20:44:41 10° NW 20:46:33 17° N 20:46:33 17° N
RESURS DK-1 3.9 20:47:50 10° NNW 20:50:15 33° NNW 20:50:15 33° NNW
BREEZE M DEB (TANK) 4.5 20:48:07 10° W 20:53:25 32° NNW 20:53:25 32° NNW
Cosmos 1570 Rocket 4.3 20:49:55 10° NNW 20:54:32 66° N 20:54:32 66° N
Resurs 01 Rocket 3.6 20:55:17 20° WSW 20:56:10 21° W 20:59:34 10° NW
COSMOS 2406 3.5 20:54:52 44° SW 20:56:31 64° WNW 21:02:13 10° NNE
CZ-4C R/B 3.5 20:53:49 10° NNW 21:00:40 46° NE 21:01:49 43° ENE
Cosmos 1697 Rocket 3.1 21:09:56 10° NNW 21:14:29 58° NNW 21:14:29 58° NNW
Cosmos 2369 4.1 21:10:05 10° NNW 21:14:33 57° NNW 21:14:33 57° NNW
SL-16 R/B 4.0 21:32:52 10° N 21:36:11 22° NNE 21:36:11 22° NNE
USA 234 3.8 21:37:31 10° NE 21:43:50 54° NNW 21:50:09 10° WSW
Cosmos 2322 Rocket 4.1 21:39:57 10° N 21:43:04 21° NNE 21:43:04 21° NNE
Cosmos 1980 Rocket 3.3 21:40:12 10° NNW 21:43:48 41° NNW 21:43:48 41° NNW
Terra 4.1 22:08:46 20° NW 22:08:46 20° NW 22:10:34 10° NNW
Mayak 1.8 22:04:32 10° N 22:04:58 13° N 22:04:58 13° N
Cosmos 2082 Rocket 3.7 22:15:56 32° NNW 22:15:56 32° NNW 22:19:26 10° NNE
Cosmos 2344 4.4 22:27:53 10° NW 22:37:55 81° WSW 22:38:35 78° SSW
CZ-4C R/B 3.9 22:42:18 10° NW 22:47:00 38° WNW 22:47:00 38° WNW
SL-16 R/B 4.4 23:16:20 10° NNW 23:18:03 20° NW 23:18:03 20° NW
Cosmos 2360 Rocket 4.2 23:17:04 10° NNW 23:19:17 24° NNW 23:19:17 24° NNW
Cosmos 2322 Rocket 4.4 23:23:16 10° NNW 23:24:52 19° NW 23:24:52 19° NW
Cosmos 2333 Rocket 4.1 23:39:42 10° N 23:42:25 25° N 23:42:25 25° N
SL-16 R/B 4.3 23:48:42 24° ENE 23:48:42 24° ENE 23:53:25 10° N
